sat.trackr.live / text

‹ back to catalog

STARLINK-1626

NORAD 46167 · 2020-057BC

PAYLOAD ACTIVE UNKNOWN

§ Identity

Operator
Country
US
Launch date
2020-08-18
Launch site
AFETR
Launch vehicle
Mass (kg)
RCS (m²)

Purposes: comms

External: N2YO · Heavens-Above · Gunter

§ Orbital elements

Epoch: 2026-08-26T01:03:13.448160Z

Period
87.97 min
Inclination
53.0190°
Eccentricity
0.0009483
Mean motion
16.36830569 rev/d
Perigee alt
168.0 km
Apogee alt
180.5 km
Semi-major
6,552.4 km
B*
6.5963e-4
RAAN
168.8646°
Arg perigee
243.0532°
Mean anomaly
116.9545°
Rev number
33,309

§ Raw data

STARLINK-16261 46167U 20057BC  26238.04390565  .06354903  12219-4  65963-3 0  99922 46167  53.0190 168.8646 0009483 243.0532 116.9545 16.36830569333092

JSON: /api/v1/satellites/46167 · /tle

For live sub-satellite position, see the globe view (requires WebGL).

§ Visibility from observer

Set your observer location to see the next 7 days of passes ≥ 10°. The values pass through the URL so the page stays shareable.

No JS? Fill the form by hand. The geolocation button needs JavaScript.